Location: ??? ???
(33.4974°N, 35.4618°E)
Time: 11:21:26
(UTC+00:00)

Cosmos 1455 - Pass Details

Date: 29 October 2020
Orbit: 499 x 521 km, 82.5° (Epoch: 26 November)

Event Time Altitude Azimuth Distance (km) Brightness Sun altitude
Rises 16:13:15 0° 193° (SSW) 2,587 6.0 -18.1°
Reaches altitude 10° 16:15:22 10° 197° (SSW) 1,710 5.1 -18.6°
Maximum altitude 16:19:04 60° 277° (W) 585 2.7 -19.4°
Drops below altitude 10° 16:22:50 10° 359° (N) 1,736 4.8 -20.1°
Sets 16:25:00 0° 3° (N) 2,630 5.7 -20.6°
